Back to catalog

STARLINK-1454

AliveCommunicationsVLEO
NORAD 45671·PAYLOAD·🇺🇸 United States

Launched Jun 4, 2020 from Cape Canaveral Space Force Station

Loading…

Next Passes (next 24 hours)

TLE

FreshSource: CelesTrak SupGP

Epoch: Sep 14, 2026, 13:59 UTC

1 45671C 20035Q   26257.58312500  .00141060  00000+0  46491-3 0  2574
2 45671  53.0357 199.7495 0006109  77.7890 291.5559 15.89622741    18

Track STARLINK-1454 in real time with AllMySat

Download on the App Store